SCP
0 0 0 0 0 0 0 0 0 0 0 0 0 0 0 0 0 0 0 0 0 0 0 0 0 0 0 0 0 0 0 0 0 0 0 0 0 0 0 0 0 0 0 0
0 0 0 0 0 0 0 0 0 0 0 0 0 0 0 0 0 0 0 0 0 0 0 0 0 0 0 0 0 0 0 0 0 0 0 0 0 0 0 0 0 0 0 0
0 0 0 0 0 0 0 0 0 0 0 0 0 0 0 0 0 0 0 0 0 0 0 0 0 0 0 0 0 0 0 0 0 0 0 0 0 0 0 0 0 0 0 0
0 0 0 0 0 0 0 0 0 0 0 0 0 0 0 0 0 0 0 0 0 0 0 0 0 0 0 0 0 0 0 0 0 0 0 0 0 0 0 0 0 0 0 0
0 0 0 0 0 0 0 0 0 0 0 0 0 0 0 0 0 0 0 0 0 0 0 0 0 0 0 0 0 0 0 0 0 0 0 0 0 0 0 0 0 0 0 0
0 0 0 0 0 0 0 0 0 0 0 0 0 0 0 0 0 0 0 0 0 0 0 0 0 0 0 0 0 0 0 0 0 0 0 0 0 0 0 0 0 0 0 0
0 0 0 0 0 0 0 0 0 0 0 0 0 0 0 0 0 0 0 0 0 0 0 0 0 0 0 0 0 0 0 0 0 0 0 0 0 0 0 0 0 0 0 0
0 0 0 0 0 0 0 0 0 0 0 0 0 0 0 0 0 0 0 0 0 0 0 0 0 0 0 0 0 0 0 0 0 0 0 0 0 0 0 0 0 0 0 0
0 0 0 0 0 0 0 0 0 0 0 0 0 0 0 0 0 0 0 0 0 0 -0 0 0 0 0 0 0 0 0 0 0 0 0 0 0 0 0 0 0 0 0 0
0 0 0 0 0 0 0 0 0 0 0 0 0 0 0 0 0 0 0 0 0 0 -0 0 0 0 0 0 0 0 0 0 0 0 0 0 0 0 0 0 0 0 0 0
0 0 0 0 0 0 0 0 0 0 0 0 0 0 0 0 0 0 0 0 0 -0 -0 0 0 0 -0 0 0 0 0 0 0 0 0 0 0 0 0 0 0 0 0 0
0 0 0 0 0 0 0 0 0 0 0 0 0 0 0 0 0 0 0 0 -0 -0 -0 0 0 0 0 0 0 -0 0 0 0 0 0 0 0 0 0 0 0 0 -0 0
0 0 0 0 0 0 0 0 0 0 0 0 0 0 0 0 0 0 0 0 -0 -0 0 0 0 0 0 0 0 0 0 0 0 0 0 0 0 0 0 0 0 0 0 0
0 0 0 0 0 0 0 0 0 0 0 0 0 0 0 0 0 0 0 0 -0 -0 0 0 0 0 0 0 0 0 0 0 0 0 0 0 0 0 0 0 0 0 0 0
0 0 0 0 0 0 0 0 0 0 0 0 0 0 0 0 0 0 0 0 0 -0 0 0 0 0 0 0 0 0 0 0 0 0 0 0 -0 -0 -0 0 0 0 0 0
0 0 0 0 0 0 0 0 0 0 0 0 0 0 0 0 0 0 0 0 0 0 0 0 0 0 0 0 0 0 0 0 0 0 0 -0 -0 -0 -0 0 0 0 0 0
0 0 0 0 0 0 0 0 0 0 0 0 0 0 0 0 0 0 0 0 0 0 0 0 0 0 0 0 0 0 0 0 0 0 0 0 0 0 0 0 0 0 0 0
0 0 0 0 0 0 0 0 0 0 0 0 0 0 0 0 0 0 0 0 0 0 0 0 0 0 0 0 0 0 0 0 0 0 0 0 0 0 0 0 0 0 0 0
0 0 0 0 0 0 0 0 0 0 0 0 0 0 0 0 0 0 0 0 0 0 -0 -0 -0 -0 0 0 0 0 0 0 0 0 0 0 0 0 0 0 0 0 0 0
0 0 0 0 0 0 0 0 0 0 0 0 0 0 0 0 0 0 0 0 -0 0 -0 0 0 0 0 0 0 0 0 0 0 0 0 0 0 0 0 0 0 0 0 0
0 0 0 0 0 0 0 0 0 0 0 0 0 0 0 0 0 0 0 0 0 0 0 0 0 0 0 0 0 0 0 0 0 0 0 0 0 0 0 0 0 0 0 0
0 0 0 0 0 0 0 0 0 0 0 0 0 0 0 0 0 0 0 0 0 0 0 0 0 0 0 0 0 0 0 0 0 0 0 0 0 0 0 0 0 0 0 0
0 0 0 0 0 0 0 0 0 0 0 0 0 0 0 0 0 0 0 0 0 0 0 0 0 0 0 0 0 0 0 0 0 0 0 0 0 0 0 0 0 0 0 0
0 0 0 0 0 0 0 0 0 0 0 0 0 0 0 0 0 0 0 0 0 0 0 0 0 0 0 0 0 0 0 0 0 0 0 0 0 0 0 0 0 0 0 0
0 0 0 0 0 0 0 0 0 0 0 0 0 0 0 0 0 0 0 0 0 0 0 0 0 0 0 0 0 0 0 0 0 0 0 0 0 0 0 0 0 0 0 0
0 0 0 0 0 0 0 0 0 0 0 0 0 0 0 0 0 0 0 0 0 0 0 0 0 0 0 0 0 0 0 0 0 0 0 0 0 0 0 0 0 0 0 0
Wind_Speed_500mb
9 7 16 24 17 4 7 7 8 6 2 4 11 14 22 39 13 11 12 12 14 17 20 23 31 38 42 41 39 38 39 42 42 39 37 35 33 33 34 37 37 36 32 28
6 15 14 10 11 12 6 7 9 8 2 2 8 21 2 9 6 11 13 14 13 16 17 19 22 25 28 29 33 37 39 41 38 34 33 32 34 34 35 35 33 32 30 29
13 5 15 11 10 11 8 9 7 6 12 3 13 11 3 2 9 14 13 10 7 6 11 15 18 23 28 32 37 38 34 32 32 33 34 36 37 37 36 34 32 32 32 31
10 8 13 8 9 11 8 7 8 7 7 6 5 9 6 7 4 1 3 5 5 4 1 6 11 15 20 23 27 30 30 33 37 38 37 38 38 36 33 31 29 27 29 28
12 15 11 7 7 9 8 7 8 7 6 8 1 6 11 8 5 5 5 2 4 11 15 19 21 23 25 27 29 33 37 38 39 40 39 37 35 33 31 29 28 26 27 28
5 4 5 8 7 8 12 8 8 7 6 2 8 9 8 9 11 6 7 11 20 16 15 17 20 23 26 29 31 33 34 35 35 35 34 32 31 29 27 27 26 27 26 25
4 3 2 5 11 4 7 9 4 7 4 10 5 2 15 8 9 8 6 13 13 14 18 20 23 26 27 30 32 32 31 30 31 31 29 28 27 26 25 26 29 28 26 25
14 7 13 3 5 12 10 11 9 13 7 7 6 11 10 10 0 5 8 12 16 21 23 24 25 25 26 28 28 29 29 29 29 28 27 26 26 26 28 32 31 28 27 23
9 5 5 7 1 2 9 6 5 12 7 5 6 12 7 7 6 6 13 14 19 25 25 24 21 22 24 23 24 26 27 27 27 27 27 27 27 27 30 30 26 23 21 20
9 11 4 3 1 6 4 8 6 5 5 8 9 10 10 8 9 7 10 15 21 23 24 18 15 18 21 22 24 25 26 26 25 25 24 24 25 27 25 21 17 17 16 16
8 8 6 6 8 13 7 3 5 7 7 9 4 11 11 16 15 11 14 10 15 21 25 21 15 18 20 20 21 22 23 21 18 18 21 24 23 19 17 16 16 16 14 16
5 9 8 6 2 1 3 10 8 8 10 3 6 12 6 14 13 15 13 7 8 15 20 21 21 20 20 20 19 19 19 17 17 18 19 18 15 11 10 11 12 13 12 14
11 4 9 3 2 4 9 10 8 7 6 11 12 11 6 9 12 14 18 5 3 9 15 17 17 18 18 18 17 16 17 16 17 18 17 14 9 7 9 8 8 8 8 9
6 4 9 13 9 9 11 12 12 10 7 8 12 8 8 13 12 11 8 6 5 7 19 21 17 18 18 18 18 18 17 15 17 16 16 12 8 9 8 9 10 8 8 7
7 8 4 2 7 6 9 12 21 30 15 14 11 17 10 14 15 10 6 10 12 16 17 26 26 22 20 19 20 20 19 20 19 17 15 12 11 9 5 9 11 8 8 5
2 6 5 4 7 5 10 15 16 28 33 15 9 36 19 17 16 10 10 16 14 13 17 29 29 25 27 26 23 23 23 24 25 19 16 14 14 11 8 11 12 10 9 10
9 10 5 6 2 3 12 24 28 14 7 29 27 18 5 7 6 7 16 9 5 19 24 32 33 33 30 31 33 25 24 28 28 26 22 22 21 18 18 19 19 17 18 19
10 9 5 5 4 2 12 4 7 20 10 18 3 9 13 9 1 2 10 7 17 27 32 32 33 32 31 32 34 32 28 27 30 29 29 30 31 30 29 31 29 27 28 27
4 8 5 8 7 11 4 8 13 13 13 18 25 6 10 6 5 11 7 16 29 32 30 32 35 36 36 36 35 35 31 32 31 28 34 37 41 43 41 42 39 37 40 40
6 8 7 4 7 12 12 8 12 7 8 8 13 11 13 6 1 7 7 27 29 25 29 33 33 33 33 32 32 32 31 32 35 36 37 39 44 50 53 52 52 50 50 51
7 4 9 6 4 15 12 8 15 9 11 15 13 16 15 7 7 12 24 22 21 25 26 27 25 27 28 29 28 29 30 32 34 37 41 44 44 48 52 57 59 59 58 59
10 11 7 6 4 16 15 11 12 7 10 13 11 8 7 3 7 9 10 15 18 22 25 24 24 25 26 28 30 30 32 33 34 36 37 39 42 46 51 55 57 60 63 67
4 11 8 14 10 6 38 1 14 16 9 13 10 9 5 4 2 6 12 13 18 23 26 26 27 27 27 28 33 35 35 37 36 36 36 37 38 39 43 49 52 57 60 66
8 11 5 4 5 8 27 17 20 14 10 13 12 9 7 6 3 6 9 13 18 22 27 29 29 29 30 30 32 35 37 38 39 37 35 36 38 36 34 38 43 48 52 56
7 12 9 7 7 1 19 33 25 20 16 17 15 12 8 6 5 7 11 15 19 23 26 29 32 33 33 35 35 36 37 38 38 37 36 35 35 36 36 33 35 39 38 40
15 12 9 10 14 8 5 45 36 27 24 20 17 16 11 9 8 9 13 17 20 23 27 29 30 32 32 35 36 36 37 37 39 37 37 36 36 36 35 36 34 27 31 29
Wind_Direction_500mb
183 134 206 206 204 148 148 184 226 255 110 296 236 270 287 304 329 80 77 78 91 111 127 153 168 181 192 203 218 234 250 260 264 264 265 266 269 273 277 283 286 287 288 287
84 228 220 195 197 194 186 190 246 284 47 353 333 291 298 0 35 84 95 90 105 128 140 151 166 181 199 221 236 247 254 263 266 265 268 272 275 278 282 283 282 280 280 282
172 254 150 154 161 160 190 187 202 210 331 12 338 307 333 54 99 86 78 84 100 149 203 212 222 229 236 244 253 261 265 265 268 272 276 278 281 284 284 281 277 278 281 285
229 202 161 164 188 140 194 156 120 97 63 235 11 281 282 170 177 285 111 114 88 56 289 241 241 248 253 257 261 265 269 274 277 278 278 278 281 280 276 273 273 274 277 278
219 167 163 159 186 141 199 127 112 113 92 49 338 87 270 175 217 249 244 218 336 315 297 292 283 279 277 277 276 274 276 276 276 278 280 280 279 278 275 276 276 276 275 277
127 99 119 151 92 105 137 94 65 58 90 328 232 149 254 205 195 209 235 276 303 308 303 295 289 281 281 280 280 278 277 277 278 279 279 278 276 275 275 276 275 274 275 276
110 116 48 121 96 72 85 100 1 345 357 219 290 135 253 228 208 198 242 313 328 332 315 305 295 289 285 281 278 277 278 279 279 281 278 276 275 274 273 276 275 275 274 272
156 236 170 167 173 173 181 157 168 205 196 257 347 232 257 220 214 251 290 323 324 319 308 301 294 294 295 291 285 282 284 282 280 278 276 276 274 278 282 280 277 273 269 269
136 134 72 55 33 103 189 183 146 101 34 72 231 285 280 142 339 339 355 343 338 332 320 303 292 294 301 297 290 285 281 279 278 279 280 280 284 286 283 276 269 260 267 268
181 110 183 148 113 32 138 159 81 2 139 249 281 276 232 215 233 297 316 324 340 349 352 336 305 306 308 303 294 286 281 278 279 282 286 287 290 281 268 264 261 263 268 282
129 100 126 117 205 175 151 155 70 113 134 170 248 260 214 179 188 211 265 302 342 6 8 1 345 326 322 313 303 294 285 281 280 286 294 296 280 265 270 275 273 274 275 276
149 107 144 211 239 157 187 188 149 134 229 212 161 272 202 178 196 214 274 298 354 15 12 8 358 342 327 317 310 304 297 295 294 291 284 266 258 273 287 287 295 288 279 289
174 168 123 129 174 210 218 182 144 134 93 202 151 258 336 271 284 240 258 290 325 1 357 358 357 354 332 315 305 298 295 291 284 271 265 259 265 285 297 318 312 289 285 290
97 129 167 188 184 137 189 186 172 139 142 189 226 268 281 255 237 280 249 262 267 345 -0 347 341 351 342 322 308 295 288 284 282 278 272 267 272 282 314 318 287 286 287 287
112 176 105 13 85 144 182 187 194 210 200 186 235 211 230 219 223 253 257 307 293 273 336 351 339 332 335 329 317 299 289 283 277 276 275 278 275 277 314 293 282 278 271 282
27 125 95 331 2 79 246 240 226 222 235 254 237 280 206 253 217 224 306 319 297 281 307 335 336 332 326 320 320 311 286 279 278 275 279 279 281 288 278 263 263 259 271 283
143 136 103 254 56 96 301 227 199 214 242 218 232 231 189 238 241 306 356 12 333 323 325 326 331 329 326 315 310 311 304 279 276 273 272 272 269 271 270 264 264 267 271 275
136 117 101 168 46 303 240 203 179 207 234 217 286 230 204 178 262 250 98 22 337 333 325 322 322 320 316 310 302 301 302 297 278 271 268 266 266 264 262 263 265 266 271 274
109 124 118 144 204 290 291 217 164 162 271 201 218 207 219 216 274 220 186 337 334 328 320 318 318 317 313 308 304 300 295 288 287 279 265 261 260 259 257 258 262 265 268 271
124 88 114 100 143 216 242 248 194 139 296 205 172 188 176 166 12 255 259 317 321 315 314 314 316 316 309 304 304 304 301 290 284 280 277 273 268 266 264 262 261 261 263 268
147 139 174 171 215 285 241 197 150 93 239 159 151 144 161 181 205 299 304 309 316 320 321 322 325 325 323 319 317 314 310 303 299 294 289 285 279 275 271 268 264 263 262 263
155 149 182 135 167 268 156 109 163 204 133 158 151 157 163 217 277 297 317 329 334 333 334 335 341 341 336 330 328 327 322 318 315 309 305 298 290 281 278 274 270 266 265 264
227 180 181 188 212 225 189 108 174 166 163 181 188 176 147 124 44 349 347 344 339 338 341 343 344 347 343 338 333 332 328 326 323 319 314 308 304 296 286 280 277 272 268 266
243 178 199 81 273 221 202 201 182 187 187 171 170 162 153 133 78 4 355 350 347 345 345 345 346 349 349 346 340 335 332 329 327 326 321 316 310 304 297 288 284 279 277 276
198 140 196 263 255 199 222 210 199 184 176 169 166 161 142 120 76 33 14 4 356 351 350 348 347 349 348 346 344 340 336 332 330 331 329 327 323 318 311 304 298 288 284 285
187 190 177 218 212 194 225 208 195 185 177 173 168 152 134 114 85 50 26 12 2 357 352 349 348 348 348 347 345 343 340 338 335 336 336 336 332 328 323 316 308 302 294 293
Wind_Speed_850mb
9 7 16 24 17 4 7 7 8 6 2 4 11 14 22 39 13 11 12 12 14 17 20 23 31 38 42 41 39 38 39 42 42 39 37 35 33 33 34 37 37 36 32 28
6 15 14 10 11 12 6 7 9 8 2 2 8 21 2 9 6 11 13 14 13 16 17 19 22 25 28 29 33 37 39 41 38 34 33 32 34 34 35 35 33 32 30 29
13 5 15 11 10 11 8 9 7 6 12 3 13 11 3 2 9 14 13 10 7 6 11 15 18 23 28 32 37 38 34 32 32 33 34 36 37 37 36 34 32 32 32 31
10 8 13 8 9 11 8 7 8 7 7 6 5 9 6 7 4 1 3 5 5 4 1 6 11 15 20 23 27 30 30 33 37 38 37 38 38 36 33 31 29 27 29 28
12 15 11 7 7 9 8 7 8 7 6 8 1 6 11 8 5 5 5 2 4 11 15 19 21 23 25 27 29 33 37 38 39 40 39 37 35 33 31 29 28 26 27 28
5 4 5 8 7 8 12 8 8 7 6 2 8 9 8 9 11 6 7 11 20 16 15 17 20 23 26 29 31 33 34 35 35 35 34 32 31 29 27 27 26 27 26 25
4 3 2 5 11 4 7 9 4 7 4 10 5 2 15 8 9 8 6 13 13 14 18 20 23 26 27 30 32 32 31 30 31 31 29 28 27 26 25 26 29 28 26 25
14 7 13 3 5 12 10 11 9 13 7 7 6 11 10 10 0 5 8 12 16 21 23 24 25 25 26 28 28 29 29 29 29 28 27 26 26 26 28 32 31 28 27 23
9 5 5 7 1 2 9 6 5 12 7 5 6 12 7 7 6 6 13 14 19 25 25 24 21 22 24 23 24 26 27 27 27 27 27 27 27 27 30 30 26 23 21 20
9 11 4 3 1 6 4 8 6 5 5 8 9 10 10 8 9 7 10 15 21 23 24 18 15 18 21 22 24 25 26 26 25 25 24 24 25 27 25 21 17 17 16 16
8 8 6 6 8 13 7 3 5 7 7 9 4 11 11 16 15 11 14 10 15 21 25 21 15 18 20 20 21 22 23 21 18 18 21 24 23 19 17 16 16 16 14 16
5 9 8 6 2 1 3 10 8 8 10 3 6 12 6 14 13 15 13 7 8 15 20 21 21 20 20 20 19 19 19 17 17 18 19 18 15 11 10 11 12 13 12 14
11 4 9 3 2 4 9 10 8 7 6 11 12 11 6 9 12 14 18 5 3 9 15 17 17 18 18 18 17 16 17 16 17 18 17 14 9 7 9 8 8 8 8 9
6 4 9 13 9 9 11 12 12 10 7 8 12 8 8 13 12 11 8 6 5 7 19 21 17 18 18 18 18 18 17 15 17 16 16 12 8 9 8 9 10 8 8 7
7 8 4 2 7 6 9 12 21 30 15 14 11 17 10 14 15 10 6 10 12 16 17 26 26 22 20 19 20 20 19 20 19 17 15 12 11 9 5 9 11 8 8 5
2 6 5 4 7 5 10 15 16 28 33 15 9 36 19 17 16 10 10 16 14 13 17 29 29 25 27 26 23 23 23 24 25 19 16 14 14 11 8 11 12 10 9 10
9 10 5 6 2 3 12 24 28 14 7 29 27 18 5 7 6 7 16 9 5 19 24 32 33 33 30 31 33 25 24 28 28 26 22 22 21 18 18 19 19 17 18 19
10 9 5 5 4 2 12 4 7 20 10 18 3 9 13 9 1 2 10 7 17 27 32 32 33 32 31 32 34 32 28 27 30 29 29 30 31 30 29 31 29 27 28 27
4 8 5 8 7 11 4 8 13 13 13 18 25 6 10 6 5 11 7 16 29 32 30 32 35 36 36 36 35 35 31 32 31 28 34 37 41 43 41 42 39 37 40 40
6 8 7 4 7 12 12 8 12 7 8 8 13 11 13 6 1 7 7 27 29 25 29 33 33 33 33 32 32 32 31 32 35 36 37 39 44 50 53 52 52 50 50 51
7 4 9 6 4 15 12 8 15 9 11 15 13 16 15 7 7 12 24 22 21 25 26 27 25 27 28 29 28 29 30 32 34 37 41 44 44 48 52 57 59 59 58 59
10 11 7 6 4 16 15 11 12 7 10 13 11 8 7 3 7 9 10 15 18 22 25 24 24 25 26 28 30 30 32 33 34 36 37 39 42 46 51 55 57 60 63 67
4 11 8 14 10 6 38 1 14 16 9 13 10 9 5 4 2 6 12 13 18 23 26 26 27 27 27 28 33 35 35 37 36 36 36 37 38 39 43 49 52 57 60 66
8 11 5 4 5 8 27 17 20 14 10 13 12 9 7 6 3 6 9 13 18 22 27 29 29 29 30 30 32 35 37 38 39 37 35 36 38 36 34 38 43 48 52 56
7 12 9 7 7 1 19 33 25 20 16 17 15 12 8 6 5 7 11 15 19 23 26 29 32 33 33 35 35 36 37 38 38 37 36 35 35 36 36 33 35 39 38 40
15 12 9 10 14 8 5 45 36 27 24 20 17 16 11 9 8 9 13 17 20 23 27 29 30 32 32 35 36 36 37 37 39 37 37 36 36 36 35 36 34 27 31 29
Wind_Direction_850mb
183 134 206 206 204 148 148 184 226 255 110 296 236 270 287 304 329 80 77 78 91 111 127 153 168 181 192 203 218 234 250 260 264 264 265 266 269 273 277 283 286 287 288 287
84 228 220 195 197 194 186 190 246 284 47 353 333 291 298 0 35 84 95 90 105 128 140 151 166 181 199 221 236 247 254 263 266 265 268 272 275 278 282 283 282 280 280 282
172 254 150 154 161 160 190 187 202 210 331 12 338 307 333 54 99 86 78 84 100 149 203 212 222 229 236 244 253 261 265 265 268 272 276 278 281 284 284 281 277 278 281 285
229 202 161 164 188 140 194 156 120 97 63 235 11 281 282 170 177 285 111 114 88 56 289 241 241 248 253 257 261 265 269 274 277 278 278 278 281 280 276 273 273 274 277 278
219 167 163 159 186 141 199 127 112 113 92 49 338 87 270 175 217 249 244 218 336 315 297 292 283 279 277 277 276 274 276 276 276 278 280 280 279 278 275 276 276 276 275 277
127 99 119 151 92 105 137 94 65 58 90 328 232 149 254 205 195 209 235 276 303 308 303 295 289 281 281 280 280 278 277 277 278 279 279 278 276 275 275 276 275 274 275 276
110 116 48 121 96 72 85 100 1 345 357 219 290 135 253 228 208 198 242 313 328 332 315 305 295 289 285 281 278 277 278 279 279 281 278 276 275 274 273 276 275 275 274 272
156 236 170 167 173 173 181 157 168 205 196 257 347 232 257 220 214 251 290 323 324 319 308 301 294 294 295 291 285 282 284 282 280 278 276 276 274 278 282 280 277 273 269 269
136 134 72 55 33 103 189 183 146 101 34 72 231 285 280 142 339 339 355 343 338 332 320 303 292 294 301 297 290 285 281 279 278 279 280 280 284 286 283 276 269 260 267 268
181 110 183 148 113 32 138 159 81 2 139 249 281 276 232 215 233 297 316 324 340 349 352 336 305 306 308 303 294 286 281 278 279 282 286 287 290 281 268 264 261 263 268 282
129 100 126 117 205 175 151 155 70 113 134 170 248 260 214 179 188 211 265 302 342 6 8 1 345 326 322 313 303 294 285 281 280 286 294 296 280 265 270 275 273 274 275 276
149 107 144 211 239 157 187 188 149 134 229 212 161 272 202 178 196 214 274 298 354 15 12 8 358 342 327 317 310 304 297 295 294 291 284 266 258 273 287 287 295 288 279 289
174 168 123 129 174 210 218 182 144 134 93 202 151 258 336 271 284 240 258 290 325 1 357 358 357 354 332 315 305 298 295 291 284 271 265 259 265 285 297 318 312 289 285 290
97 129 167 188 184 137 189 186 172 139 142 189 226 268 281 255 237 280 249 262 267 345 -0 347 341 351 342 322 308 295 288 284 282 278 272 267 272 282 314 318 287 286 287 287
112 176 105 13 85 144 182 187 194 210 200 186 235 211 230 219 223 253 257 307 293 273 336 351 339 332 335 329 317 299 289 283 277 276 275 278 275 277 314 293 282 278 271 282
27 125 95 331 2 79 246 240 226 222 235 254 237 280 206 253 217 224 306 319 297 281 307 335 336 332 326 320 320 311 286 279 278 275 279 279 281 288 278 263 263 259 271 283
143 136 103 254 56 96 301 227 199 214 242 218 232 231 189 238 241 306 356 12 333 323 325 326 331 329 326 315 310 311 304 279 276 273 272 272 269 271 270 264 264 267 271 275
136 117 101 168 46 303 240 203 179 207 234 217 286 230 204 178 262 250 98 22 337 333 325 322 322 320 316 310 302 301 302 297 278 271 268 266 266 264 262 263 265 266 271 274
109 124 118 144 204 290 291 217 164 162 271 201 218 207 219 216 274 220 186 337 334 328 320 318 318 317 313 308 304 300 295 288 287 279 265 261 260 259 257 258 262 265 268 271
124 88 114 100 143 216 242 248 194 139 296 205 172 188 176 166 12 255 259 317 321 315 314 314 316 316 309 304 304 304 301 290 284 280 277 273 268 266 264 262 261 261 263 268
147 139 174 171 215 285 241 197 150 93 239 159 151 144 161 181 205 299 304 309 316 320 321 322 325 325 323 319 317 314 310 303 299 294 289 285 279 275 271 268 264 263 262 263
155 149 182 135 167 268 156 109 163 204 133 158 151 157 163 217 277 297 317 329 334 333 334 335 341 341 336 330 328 327 322 318 315 309 305 298 290 281 278 274 270 266 265 264
227 180 181 188 212 225 189 108 174 166 163 181 188 176 147 124 44 349 347 344 339 338 341 343 344 347 343 338 333 332 328 326 323 319 314 308 304 296 286 280 277 272 268 266
243 178 199 81 273 221 202 201 182 187 187 171 170 162 153 133 78 4 355 350 347 345 345 345 346 349 349 346 340 335 332 329 327 326 321 316 310 304 297 288 284 279 277 276
198 140 196 263 255 199 222 210 199 184 176 169 166 161 142 120 76 33 14 4 356 351 350 348 347 349 348 346 344 340 336 332 330 331 329 327 323 318 311 304 298 288 284 285
187 190 177 218 212 194 225 208 195 185 177 173 168 152 134 114 85 50 26 12 2 357 352 349 348 348 348 347 345 343 340 338 335 336 336 336 332 328 323 316 308 302 294 293